Weather History for Windom, MN

Change the Weather History Date:

Wednesday, January 25, 2012

  Actual Average Record
Temperature  
Mean Temperature 24 °F -  
Max Temperature 28 °F 26 °F 62 °F (1981)
Min Temperature 21 °F 4 °F -32 °F (2011)
Degree Days  
Heating Degree Days 40    
Moisture  
Dew Point 25 °F    
Average Humidity 98    
Maximum Humidity 100    
Minimum Humidity 86    
Precipitation  
Precipitation 0.00 in - - ()
Sea Level Pressure  
Sea Level Pressure 30.04 in    
Wind  
Wind Speed 6 mph (SSE)    
Max Wind Speed 15 mph    
Max Gust Speed 21 mph    
Visibility 3 miles    
Events Snow    
Averages and records for this station are not official NWS values.
T = Trace of Precipitation, MM = Missing Value Source: NWS Daily Summary

Daily Weather History Graph

Daily Weather History Graph

Search for Another Location

Airport:

Trip Planner

Search our weather history database for the weather conditions in past years. The results will help you decide how hot, cold, wet, or windy it might be!

Date:

Astronomy

Jan. 25, 2012 Rise Set
Actual Time 7:45 AM CST 5:20 PM CST
Civil Twilight 7:13 AM CST 5:52 PM CST
Nautical Twilight 6:38 AM CST 6:27 PM CST
Astronomical Twilight 6:04 AM CST 7:01 PM CST
Moon 8:38 AM CST (1/25) 8:22 PM CST (1/25)
Length of Visible Light 10h 38m
Length of Day
9h 35m
Waxing Crescent, 7% of the Moon is Illuminated
Jan 25
Waxing Crescent
Jan 30
First Quarter
Feb 7
Full
Feb 14
Last Quarter
Feb 21
New

Hourly Weather History & Observations

Time (CST) Temp. Windchill Dew Point Humidity Pressure Visibility Wind Dir Wind Speed Gust Speed Precip Events Conditions
12:12 AM 23.0 °F - 21.2 °F 93% 30.20 in 4.0 mi Calm Calm - N/A Snow Light Snow
12:33 AM 23.0 °F 18.4 °F 23.0 °F 100% 30.21 in 1.8 mi South 3.5 mph - N/A Snow Light Snow
12:52 AM 24.8 °F - 23.0 °F 93% 30.21 in 3.0 mi Calm Calm - N/A Snow Light Snow
1:12 AM 24.8 °F 19.1 °F 23.0 °F 93% 30.20 in 4.0 mi SE 4.6 mph - N/A Snow Light Snow
1:32 AM 24.8 °F 16.9 °F 23.0 °F 93% 30.20 in 4.0 mi SE 6.9 mph - N/A Snow Light Snow
1:52 AM 24.8 °F 16.9 °F 24.8 °F 100% 30.20 in 4.0 mi SSE 6.9 mph - N/A Snow Light Snow
2:13 AM 24.8 °F 19.1 °F 24.8 °F 100% 30.21 in 3.0 mi SSE 4.6 mph - N/A Snow Light Snow
2:33 AM 24.8 °F 17.9 °F 24.8 °F 100% 30.20 in 2.0 mi SE 5.8 mph - N/A Snow Light Snow
2:52 AM 24.8 °F 20.5 °F 24.8 °F 100% 30.19 in 2.5 mi SE 3.5 mph - N/A Snow Light Snow
3:13 AM 24.8 °F 20.5 °F 24.8 °F 100% 30.18 in 1.8 mi SSE 3.5 mph - N/A Snow Light Snow
3:32 AM 24.8 °F - 24.8 °F 100% 30.17 in 4.0 mi Calm Calm - N/A Snow Light Snow
3:52 AM 24.8 °F 20.5 °F 24.8 °F 100% 30.16 in 4.0 mi ESE 3.5 mph - N/A   Overcast
4:13 AM 24.8 °F - 24.8 °F 100% 30.15 in 4.0 mi Calm Calm - N/A   Overcast
4:32 AM 24.8 °F 17.9 °F 24.8 °F 100% 30.15 in 4.0 mi ESE 5.8 mph - N/A   Overcast
4:53 AM 24.8 °F 19.1 °F 24.8 °F 100% 30.15 in 4.0 mi ESE 4.6 mph - N/A   Overcast
5:13 AM 24.8 °F 17.9 °F 24.8 °F 100% 30.15 in 4.0 mi ESE 5.8 mph - N/A   Overcast
5:32 AM 24.8 °F 19.1 °F 23.0 °F 93% 30.14 in 4.0 mi SE 4.6 mph - N/A   Overcast
5:53 AM 23.0 °F 18.4 °F 23.0 °F 100% 30.14 in 5.0 mi SSE 3.5 mph - N/A   Overcast
6:12 AM 23.0 °F 17.0 °F 23.0 °F 100% 30.13 in 4.0 mi SE 4.6 mph - N/A   Overcast
6:32 AM 23.0 °F 15.8 °F 21.2 °F 93% 30.12 in 4.0 mi SE 5.8 mph - N/A   Overcast
7:13 AM 23.0 °F 12.4 °F 21.2 °F 93% 30.11 in 5.0 mi SSE 10.4 mph - N/A   Overcast
7:32 AM 23.0 °F 15.8 °F 21.2 °F 93% 30.12 in 5.0 mi South 5.8 mph - N/A   Overcast
7:53 AM 23.0 °F 17.0 °F 21.2 °F 93% 30.10 in 5.0 mi SSE 4.6 mph - N/A   Overcast
8:12 AM 23.0 °F 15.8 °F 21.2 °F 93% 30.10 in 4.0 mi South 5.8 mph - N/A   Overcast
8:32 AM 21.2 °F 14.9 °F 21.2 °F 100% 30.08 in 4.0 mi South 4.6 mph - N/A   Mostly Cloudy
8:53 AM 21.2 °F 16.4 °F 21.2 °F 100% 30.07 in 3.0 mi South 3.5 mph - N/A   Scattered Clouds
9:12 AM 21.2 °F - 21.2 °F 100% 30.06 in 3.0 mi Calm Calm - N/A   Clear
9:53 AM 24.8 °F 16.1 °F 21.2 °F 86% 30.05 in 4.0 mi South 8.1 mph - N/A   Mostly Cloudy
10:12 AM 24.8 °F 16.9 °F 21.2 °F 86% 30.04 in 4.0 mi South 6.9 mph - N/A   Overcast
10:33 AM 24.8 °F 16.9 °F 23.0 °F 93% 30.03 in 4.0 mi South 6.9 mph - N/A   Overcast
10:52 AM 26.6 °F 19.1 °F 24.8 °F 93% 30.03 in 4.0 mi South 6.9 mph - N/A   Overcast
11:13 AM 26.6 °F 16.8 °F 24.8 °F 93% 30.04 in 3.0 mi South 10.4 mph - N/A   Overcast
11:33 AM 26.6 °F 16.8 °F 24.8 °F 93% 30.05 in 3.0 mi South 10.4 mph - N/A   Overcast
11:52 AM 26.6 °F 17.5 °F 26.6 °F 100% 30.03 in 2.5 mi South 9.2 mph - N/A   Overcast
12:13 PM 26.6 °F 17.5 °F 26.6 °F 100% 30.02 in 2.0 mi South 9.2 mph - N/A   Overcast
12:33 PM 26.6 °F 16.2 °F 26.6 °F 100% 30.01 in 1.5 mi South 11.5 mph - N/A   Overcast
12:52 PM 28.4 °F 17.5 °F 26.6 °F 93% 30.00 in 1.5 mi South 13.8 mph - N/A   Overcast
1:13 PM 28.4 °F 18.0 °F 26.6 °F 93% 29.99 in 1.5 mi SSW 12.7 mph - N/A   Overcast
1:52 PM 28.4 °F 17.5 °F 28.4 °F 100% 29.97 in 1.5 mi SSW 13.8 mph - N/A   Overcast
2:13 PM 28.4 °F 18.0 °F 28.4 °F 100% 29.97 in 1.8 mi SW 12.7 mph - N/A   Overcast
2:32 PM 28.4 °F 18.5 °F 28.4 °F 100% 29.97 in 2.0 mi SSW 11.5 mph 16.1 mph N/A   Overcast
2:52 PM 28.4 °F 18.5 °F 28.4 °F 100% 29.95 in 2.0 mi SSW 11.5 mph - N/A   Overcast
3:13 PM 28.4 °F 17.5 °F 28.4 °F 100% 29.93 in 2.0 mi South 13.8 mph - N/A   Overcast
3:32 PM 28.4 °F 18.0 °F 28.4 °F 100% 29.92 in 2.0 mi South 12.7 mph - N/A   Overcast
4:13 PM 28.4 °F 18.5 °F 28.4 °F 100% 29.89 in 1.5 mi South 11.5 mph - N/A   Overcast
4:33 PM 28.4 °F 19.1 °F 28.4 °F 100% 29.90 in 1.2 mi South 10.4 mph - N/A   Overcast
4:52 PM 28.4 °F 18.5 °F 28.4 °F 100% 29.89 in 1.0 mi South 11.5 mph - N/A   Overcast
5:13 PM 28.4 °F 18.0 °F 28.4 °F 100% 29.89 in 1.2 mi South 12.7 mph - N/A   Overcast
5:32 PM 28.4 °F 19.1 °F 28.4 °F 100% 29.89 in 1.8 mi South 10.4 mph - N/A   Overcast
5:52 PM 28.4 °F 19.1 °F 28.4 °F 100% 29.90 in 1.8 mi South 10.4 mph 16.1 mph N/A   Overcast
6:13 PM 28.4 °F 20.4 °F 28.4 °F 100% 29.88 in 1.5 mi SSE 8.1 mph - N/A   Overcast
6:32 PM 28.4 °F 19.7 °F 28.4 °F 100% 29.88 in 1.8 mi South 9.2 mph - N/A   Overcast
6:53 PM 28.4 °F 19.1 °F 28.4 °F 100% 29.87 in 2.5 mi SSE 10.4 mph 17.3 mph N/A   Overcast
7:13 PM 28.4 °F 17.5 °F 28.4 °F 100% 29.87 in 2.5 mi South 13.8 mph 18.4 mph N/A   Overcast
7:32 PM 28.4 °F 18.0 °F 28.4 °F 100% 29.86 in 2.5 mi South 12.7 mph - N/A   Overcast
7:53 PM 28.4 °F 17.0 °F 28.4 °F 100% 29.86 in 2.0 mi South 15.0 mph 20.7 mph N/A   Overcast
8:12 PM 28.4 °F 17.5 °F 28.4 °F 100% 29.84 in 1.8 mi South 13.8 mph - N/A   Overcast
8:32 PM 28.4 °F 18.5 °F 28.4 °F 100% 29.83 in 2.0 mi South 11.5 mph - N/A   Overcast
8:53 PM 28.4 °F 17.5 °F 28.4 °F 100% 29.81 in 2.0 mi South 13.8 mph 19.6 mph N/A   Overcast
9:13 PM 28.4 °F 17.0 °F 28.4 °F 100% 29.81 in 1.5 mi South 15.0 mph - N/A   Overcast
9:32 PM 28.4 °F 16.2 °F 28.4 °F 100% 29.81 in 1.5 mi South 17.3 mph - N/A   Overcast
9:53 PM 28.4 °F 15.8 °F 28.4 °F 100% 29.81 in 1.8 mi South 18.4 mph 23.0 mph N/A   Overcast
10:12 PM 28.4 °F 16.2 °F 28.4 °F 100% 29.80 in 2.0 mi South 17.3 mph 23.0 mph N/A   Overcast
10:32 PM 28.4 °F 17.0 °F 28.4 °F 100% 29.80 in 2.5 mi South 15.0 mph 20.7 mph N/A   Mostly Cloudy
11:12 PM 28.4 °F 15.8 °F 28.4 °F 100% 29.79 in 3.0 mi SSW 18.4 mph 24.2 mph N/A   Mostly Cloudy
11:32 PM 28.4 °F 16.2 °F 28.4 °F 100% 29.80 in 3.0 mi SSW 17.3 mph 25.3 mph N/A   Mostly Cloudy
11:53 PM 28.4 °F 17.5 °F 28.4 °F 100% 29.79 in 3.0 mi SSW 13.8 mph - N/A   Scattered Clouds